sat.trackr.live / text

‹ back to catalog

STARLINK-3095

NORAD 49160 · 2021-082AG

PAYLOAD ACTIVE UNKNOWN

§ Identity

Operator
Country
US
Launch date
2021-09-14
Launch site
AFWTR
Launch vehicle
Mass (kg)
RCS (m²)

Purposes: comms

External: N2YO · Heavens-Above · Gunter

§ Orbital elements

Epoch: 2026-09-13T01:43:09.855840Z

Period
96.11 min
Inclination
70.0000°
Eccentricity
0.0003164
Mean motion
14.98330590 rev/d
Perigee alt
569.9 km
Apogee alt
574.3 km
Semi-major
6,950.2 km
B*
2.7398e-5
RAAN
181.9806°
Arg perigee
267.3193°
Mean anomaly
92.7604°
Rev number
27,511

§ Raw data

STARLINK-30951 49160U 21082AG  26256.07164185  .00000234  00000+0  27398-4 0  99972 49160  70.0000 181.9806 0003164 267.3193  92.7604 14.98330590275113

JSON: /api/v1/satellites/49160 · /tle

For live sub-satellite position, see the globe view (requires WebGL).

§ Visibility from observer

Set your observer location to see the next 7 days of passes ≥ 10°. The values pass through the URL so the page stays shareable.

No JS? Fill the form by hand. The geolocation button needs JavaScript.